Location: Unspecified
(0.0000°N, 0.0000°E)
Time: 19:16:11
(UTC+01:00)

Coronas F rocket - Visible Passes

Search period start: 22 January 2017 00:00
Search period end: 01 February 2017 00:00
Orbit: 277 x 286 km, 82.5° (Epoch: 21 January)

Date Brightness Start Highest point End Pass type
(mag) Time Alt. Az. Time Alt. Az. Time Alt. Az.
22 Jan 4.1 19:48:44 10° SW 19:50:34 19° W 19:52:24 10° NW visible
23 Jan 4.7 19:53:10 10° WSW 19:53:52 11° W 19:54:34 10° WNW visible
29 Jan 4.7 05:53:52 10° ENE 05:54:19 10° E 05:54:47 10° E visible
30 Jan 4.0 05:55:16 10° NE 05:56:59 18° E 05:58:44 10° SE visible
31 Jan 2.8 05:57:58 15° NNE 05:59:33 31° E 06:01:45 10° SSE visible
